KD2PO-13 Weather Reports


time (UTC)temp
C
wind
direction
speed
KPH
gust
KPH
rain 1hr
cm
rain 24hr
cm
rain mn
cm
humidity
%
barometer
mb
20260504215402 22 254 8.0 12.9 0.00 0.00 0.00 30
20260504214902 22 235 4.8 27.4 0.00 0.00 0.00 31
20260504214402 22 215 11.3 27.4 0.00 0.00 0.00 30
20260504213903 22 189 11.3 20.9 0.00 0.00 0.00 31
20260504213403 22 195 8.0 20.9 0.00 0.00 0.00 32
20260504212403 22 232 8.0 20.9 0.00 0.00 0.00 31
20260504211903 22 221 8.0 22.5 0.00 0.00 0.00 29
20260504211403 22 242 11.3 22.5 0.00 0.00 0.00 30
20260504210902 22 231 6.4 20.9 0.00 0.00 0.00 31
20260504210402 22 223 8.0 27.4 0.00 0.00 0.00 32
20260504205902 21 201 14.5 27.4 0.00 0.00 0.00 32
20260504205402 21 276 9.7 20.9 0.00 0.00 0.00 31
20260504204902 21 276 8.0 20.9 0.00 0.00 0.00 32
20260504204219 21 253 17.7 35.4 0.00 0.00 0.00 32
20260504203719 21 244 11.3 29.0 0.00 0.00 0.00 33
20260504203219 21 243 11.3 29.0 0.00 0.00 0.00 31
20260504201719 21 245 16.1 25.7 0.00 0.00 0.00 33
20260504201219 21 272 11.3 24.1 0.00 0.00 0.00 33
20260504200720 21 213 11.3 35.4 0.00 0.00 0.00 34
20260504195220 21 281 11.3 27.4 0.00 0.00 0.00 34
20260504194720 21 274 12.9 27.4 0.00 0.00 0.00 35
20260504193727 21 248 6.4 24.1 0.00 0.00 0.00 36
20260504193227 21 281 11.3 25.7 0.00 0.00 0.00 38
20260504192727 21 289 14.5 30.6 0.00 0.00 0.00 36
20260504192227 21 279 11.3 35.4 0.00 0.00 0.00 35
20260504191727 21 282 16.1 35.4 0.00 0.00 0.00 36
20260504191227 21 277 8.0 25.7 0.00 0.00 0.00 37
20260504190726 21 308 19.3 25.7 0.00 0.00 0.00 37
20260504190226 21 244 11.3 22.5 0.00 0.00 0.00 37
20260504185726 20 265 11.3 32.2 0.00 0.00 0.00 37
20260504185226 21 213 17.7 32.2 0.00 0.00 0.00 35
20260504184726 21 204 8.0 27.4 0.00 0.00 0.00 39
20260504184226 21 255 12.9 25.7 0.00 0.00 0.00 38
20260504183727 21 249 9.7 24.1 0.00 0.00 0.00 37
20260504183227 20 232 12.9 29.0 0.00 0.00 0.00 37
20260504181727 20 304 9.7 25.7 0.00 0.00 0.00 40
20260504181227 20 252 8.0 25.7 0.00 0.00 0.00 41
20260504180727 20 244 11.3 29.0 0.00 0.00 0.00 41
20260504180227 20 280 14.5 30.6 0.00 0.00 0.00 41
20260504175727 20 272 17.7 30.6 0.00 0.00 0.00 39
20260504175227 20 210 8.0 35.4 0.00 0.00 0.00 45
20260504174727 20 245 17.7 35.4 0.00 0.00 0.00 40
20260504174227 20 212 12.9 25.7 0.00 0.00 0.00 41
20260504173727 19 215 12.9 29.0 0.00 0.00 0.00 42
20260504173228 19 273 16.1 29.0 0.00 0.00 0.00 41
20260504172226 19 228 11.3 29.0 0.00 0.00 0.00 45
20260504171726 19 229 8.0 30.6 0.00 0.00 0.00 45
20260504171226 19 245 14.5 30.6 0.00 0.00 0.00 43
20260504170726 19 225 9.7 32.2 0.00 0.00 0.00 45
20260504160226 17 228 12.9 27.4 0.00 0.00 0.00 46
20260504150727 15 251 12.9 25.7 0.00 0.00 0.00 48
20260504150227 15 277 12.9 38.6 0.00 0.00 0.00 50
20260504140726 13 234 11.3 25.7 0.00 0.00 0.00 49
20260504140226 13 247 12.9 24.1 0.00 0.00 0.00 51
20260504130727 12 232 12.9 37.0 0.00 0.00 0.00 52
20260504130226 12 267 20.9 37.0 0.00 0.00 0.00 50
20260504120227 9 237 8.0 20.9 0.00 0.00 0.00 57
20260504110226 8 232 11.3 27.4 0.00 0.00 0.00 57
20260504100227 -17 0.0 0.0 0.00 0.00 0.00
20260504081726 -17 0.0 0.0 0.00 0.00 0.00
20260504081226 -17 0.0 0.0 0.00 0.00 0.00
20260504080726 -17 0.0 0.0 0.00 0.00 0.00
20260504080226 -17 0.0 0.0 0.00 0.00 0.00
20260504060226 9 249 8.0 22.5 0.00 0.00 0.00 53
20260504050726 9 244 6.4 17.7 0.00 0.00 0.00 52
20260504050226 9 237 6.4 16.1 0.00 0.00 0.00 52
20260504045725 9 239 3.2 8.0 0.00 0.00 0.00 52
20260504045225 9 213 3.2 9.7 0.00 0.00 0.00 52
20260504044726 10 246 1.6 9.7 0.00 0.00 0.00 51
20260504044226 10 239 1.6 9.7 0.00 0.00 0.00 51
20260504043225 10 211 1.6 11.3 0.00 0.00 0.00 51
20260504042725 10 0 0.0 8.0 0.00 0.00 0.00 50
20260504042226 10 222 1.6 8.0 0.00 0.00 0.00 50
20260504041726 10 0 0.0 12.9 0.00 0.00 0.00 49
20260504041226 10 0 0.0 12.9 0.00 0.00 0.00 49
20260504040726 10 251 1.6 8.0 0.00 0.00 0.00 48
20260504040225 10 0 0.0 6.4 0.00 0.00 0.00 48
20260504035726 10 228 1.6 6.4 0.00 0.00 0.00 48
20260504035226 10 0 0.0 4.8 0.00 0.00 0.00 48
20260504034726 10 0 0.0 3.2 0.00 0.00 0.00 49
20260504034225 10 0 0.0 1.6 0.00 0.00 0.00 48
20260504033726 10 0 0.0 4.8 0.00 0.00 0.00 48
20260504033226 10 0 0.0 9.7 0.00 0.00 0.00 48
20260504032726 10 256 1.6 9.7 0.00 0.00 0.00 48
20260504032226 10 0 0.0 6.4 0.00 0.00 0.00 48
20260504031725 11 0 0.0 8.0 0.00 0.00 0.00 48
20260504031225 11 0 0.0 8.0 0.00 0.00 0.00 48
20260504030725 11 0 0.0 8.0 0.00 0.00 0.00 48
20260504030226 11 276 1.6 8.0 0.00 0.00 0.00 48
20260504025726 11 276 3.2 8.0 0.00 0.00 0.00 49
20260504025225 11 286 1.6 8.0 0.00 0.00 0.00 49
20260504024726 11 284 3.2 8.0 0.00 0.00 0.00 49
20260504024225 11 288 3.2 9.7 0.00 0.00 0.00 49
20260504023226 11 289 3.2 16.1 0.00 0.00 0.00 48
20260504022726 11 298 4.8 20.9 0.00 0.00 0.00 48
20260504022225 11 299 9.7 20.9 0.00 0.00 0.00 47
20260504021726 11 292 8.0 22.5 0.00 0.00 0.00 47
20260504021225 11 292 12.9 25.7 0.00 0.00 0.00 46
20260504020726 11 302 8.0 25.7 0.00 0.00 0.00 46
20260504020226 11 282 11.3 24.1 0.00 0.00 0.00 46
20260504015725 11 293 9.7 17.7 0.00 0.00 0.00 46
20260504015225 11 302 6.4 12.9 0.00 0.00 0.00 47
20260504014725 11 293 3.2 12.9 0.00 0.00 0.00 47
20260504014226 11 279 6.4 12.9 0.00 0.00 0.00 47
20260504013726 11 285 6.4 17.7 0.00 0.00 0.00 47
20260504013226 11 286 9.7 17.7 0.00 0.00 0.00 47
20260504012725 11 279 6.4 17.7 0.00 0.00 0.00 48
20260504012225 11 296 8.0 33.8 0.00 0.00 0.00 48
20260504011725 11 278 12.9 33.8 0.00 0.00 0.00 48
20260504011226 11 290 16.1 27.4 0.00 0.00 0.00 48
20260504010726 11 302 9.7 25.7 0.00 0.00 0.00 48
20260504010226 11 295 11.3 29.0 0.00 0.00 0.00 47
20260504005725 11 316 16.1 29.0 0.00 0.00 0.00 46
20260504005225 11 316 8.0 30.6 0.00 0.00 0.00 44
20260504004726 11 282 17.7 30.6 0.00 0.00 0.00 44
20260504004226 11 295 9.7 29.0 0.00 0.00 0.00 44
20260504003725 11 291 14.5 29.0 0.00 0.00 0.00 44
20260504003225 11 274 12.9 29.0 0.00 0.00 0.00 45
20260504002725 11 283 1.6 11.3 0.00 0.00 0.00 47
20260504002225 11 0 0.0 8.0 0.00 0.00 0.00 47
20260504001726 11 229 3.2 9.7 0.00 0.00 0.00 47
20260504001225 11 232 1.6 9.7 0.00 0.00 0.00 47
20260504000725 11 0 0.0 9.7 0.00 0.00 0.00 46
20260503235725 11 305 1.6 16.1 0.00 0.00 0.00 46
20260503235225 11 283 8.0 32.2 0.00 0.00 0.00 46
20260503234726 11 276 14.5 32.2 0.00 0.00 0.00 46
20260503234225 11 301 8.0 27.4 0.00 0.00 0.00 45
20260503233725 11 289 12.9 27.4 0.00 0.00 0.00 45
20260503233225 11 318 6.4 32.2 0.00 0.00 0.00 46
20260503232725 11 331 20.9 38.6 0.00 0.00 0.00 46
20260503232225 11 311 16.1 38.6 0.00 0.00 0.00 45
20260503231226 11 299 17.7 38.6 0.00 0.00 0.00 45
20260503230725 11 259 20.9 35.4 0.00 0.00 0.00 44
20260503225725 11 276 4.8 20.9 0.00 0.00 0.00 47
20260503224726 11 259 3.2 14.5 0.00 0.00 0.00 47
20260503224225 12 283 6.4 24.1 0.00 0.00 0.00 46
20260503223725 12 288 11.3 24.1 0.00 0.00 0.00 45
20260503223225 12 277 8.0 16.1 0.00 0.00 0.00 46
20260503222725 12 271 6.4 19.3 0.00 0.00 0.00 45
20260503222225 12 280 8.0 19.3 0.00 0.00 0.00 45
20260503221725 11 292 8.0 17.7 0.00 0.00 0.00 45
20260503221225 11 290 9.7 16.1 0.00 0.00 0.00 45
20260503220726 11 284 6.4 19.3 0.00 0.00 0.00 46
20260503215725 11 294 4.8 14.5 0.00 0.00 0.00 47